N8YZF Weather Reports


Display with metric or nautical units.
time (UTC)temp
F
wind
direction
speed
MPH
gust
MPH
rain 1hr
in
rain 24hr
in
rain mn
in
humidity
%
barometer
mb
20180424160619 57 182 5.0 11.0 0.00 0.00 0.00 74 1016.5
20180424160113 57 144 2.0 9.0 0.00 0.00 0.00 74 1016.5
20180424155613 57 129 1.0 8.0 0.00 0.00 0.00 75 1016.6
20180424155114 57 137 4.0 9.0 0.00 0.00 0.00 75 1016.6
20180424154610 57 101 2.0 9.0 0.00 0.00 0.00 74 1016.6
20180424154112 57 120 0.0 5.0 0.00 0.00 0.00 74 1016.9
20180424153608 56 148 0.0 0.0 0.00 0.00 0.00 75 1016.9
20180424153103 56 157 0.0 0.0 0.00 0.00 0.00 74 1016.9
20180424152601 56 167 0.0 0.0 0.00 0.00 0.00 75 1017.0
20180424152100 56 117 0.0 0.0 0.00 0.00 0.00 76 1017.0
20180424151538 56 136 0.0 0.0 0.00 0.00 0.00 76 1017.0
20180424151039 56 159 0.0 1.0 0.00 0.00 0.00 75 1017.0
20180424150525 56 158 1.0 6.0 0.00 0.00 0.00 75 1017.0
20180424150021 56 144 1.0 6.0 0.00 0.00 0.00 76 1017.2
20180424145503 56 134 1.0 6.0 0.00 0.00 0.00 76 1017.2
20180424145003 56 147 0.0 0.0 0.00 0.00 0.00 76 1017.0
20180424144447 55 140 1.0 4.0 0.00 0.00 0.00 76 1017.3
20180424143942 55 146 1.0 9.0 0.00 0.00 0.00 76 1017.3
20180424143430 55 139 0.0 9.0 0.00 0.00 0.00 76 1017.3
20180424142924 55 161 0.0 0.0 0.00 0.00 0.00 77 1017.3
20180424142422 55 123 0.0 0.0 0.00 0.00 0.00 78 1017.3
20180424141910 55 123 0.0 0.0 0.00 0.00 0.00 79 1017.2
20180424141359 54 123 0.0 0.0 0.00 0.00 0.00 80 1017.3
20180424140856 54 123 0.0 0.0 0.00 0.00 0.00 80 1017.3
20180424140337 54 123 0.0 0.0 0.00 0.00 0.00 81 1017.3
20180424135819 53 123 0.0 0.0 0.00 0.00 0.00 82 1017.3
20180424135308 53 123 0.0 0.0 0.00 0.00 0.00 82 1017.3
20180424134745 53 123 0.0 0.0 0.00 0.00 0.00 83 1017.2
20180424134231 52 123 0.0 0.0 0.00 0.00 0.00 83 1017.2
20180424133725 52 123 0.0 0.0 0.00 0.00 0.00 83 1017.2
20180424133154 51 123 0.0 0.0 0.00 0.00 0.00 84 1017.0
20180424132640 51 123 0.0 0.0 0.00 0.00 0.00 84 1017.0
20180424132126 51 123 0.0 0.0 0.00 0.00 0.00 85 1017.0
20180424131053 50 123 0.0 0.0 0.00 0.00 0.00 85 1016.9
20180424130534 50 123 0.0 0.0 0.00 0.00 0.00 85 1016.9
20180424125943 49 123 0.0 0.0 0.00 0.00 0.00 85 1016.8
20180424125425 49 123 0.0 0.0 0.00 0.00 0.00 86 1016.8
20180424124918 49 123 0.0 0.0 0.00 0.00 0.00 86 1016.7
20180424124359 48 123 0.0 0.0 0.00 0.00 0.00 86 1016.7
20180424123846 48 123 0.0 0.0 0.00 0.00 0.00 87 1016.7
20180424123345 47 123 0.0 0.0 0.00 0.00 0.00 87 1016.7
20180424122844 47 123 0.0 0.0 0.00 0.00 0.00 87 1016.5
20180424122327 47 123 0.0 0.0 0.00 0.00 0.00 88 1016.5
20180424121745 46 123 0.0 0.0 0.00 0.00 0.00 88 1016.5
20180424121244 46 123 0.0 0.0 0.00 0.00 0.00 88 1016.5
20180424120730 46 123 0.0 0.0 0.00 0.00 0.00 89 1016.5
20180424120229 45 123 0.0 0.0 0.00 0.00 0.00 90 1016.5
20180424115714 45 123 0.0 0.0 0.00 0.00 0.00 90 1016.5
20180424115138 44 123 0.0 0.0 0.00 0.00 0.00 90 1016.4
20180424114549 44 123 0.0 0.0 0.00 0.00 0.00 90 1016.4
20180424114048 44 123 0.0 0.0 0.00 0.00 0.00 89 1016.4
20180424113527 44 123 0.0 0.0 0.00 0.00 0.00 89 1016.4
20180424112930 43 123 0.0 0.0 0.00 0.00 0.00 89 1016.3
20180424112416 43 123 0.0 0.0 0.00 0.00 0.00 88 1016.3
20180424111913 43 123 0.0 0.0 0.00 0.00 0.00 88 1016.3
20180424111357 43 123 0.0 0.0 0.00 0.00 0.00 88 1016.2
20180424110836 43 123 0.0 0.0 0.00 0.00 0.00 88 1016.2
20180424110304 43 123 0.0 0.0 0.00 0.00 0.00 88 1016.2
20180424105805 43 123 0.0 0.0 0.00 0.00 0.00 88 1016.2
20180424105249 43 123 0.0 0.0 0.00 0.00 0.00 88 1016.2
20180424104746 43 123 0.0 0.0 0.00 0.00 0.00 88 1016.2
20180424104228 43 123 0.0 0.0 0.00 0.00 0.00 88 1016.2
20180424103729 43 123 0.0 0.0 0.00 0.00 0.00 88 1016.2
20180424103147 43 123 0.0 0.0 0.00 0.00 0.00 88 1016.2
20180424102611 43 123 0.0 0.0 0.00 0.00 0.00 88 1016.2
20180424102035 43 123 0.0 0.0 0.00 0.00 0.00 88 1016.2
20180424101450 43 123 0.0 0.0 0.00 0.00 0.00 87 1016.2
20180424100950 43 123 0.0 0.0 0.00 0.00 0.00 87 1016.1
20180424100432 44 123 0.0 0.0 0.00 0.00 0.00 86 1016.1
20180424095901 44 123 0.0 0.0 0.00 0.00 0.00 86 1016.0
20180424095347 44 123 0.0 0.0 0.00 0.00 0.00 86 1016.0
20180424094835 44 123 0.0 0.0 0.00 0.00 0.00 86 1016.0
20180424094241 44 123 0.0 0.0 0.00 0.00 0.00 86 1016.1
20180424093739 44 123 0.0 0.0 0.00 0.00 0.00 85 1016.1
20180424093203 44 123 0.0 0.0 0.00 0.00 0.00 85 1016.1
20180424092638 44 123 0.0 0.0 0.00 0.00 0.00 85 1016.1
20180424092130 45 123 0.0 0.0 0.00 0.00 0.00 84 1016.1
20180424091556 45 123 0.0 0.0 0.00 0.00 0.00 84 1016.2
20180424091057 45 123 0.0 0.0 0.00 0.00 0.00 84 1016.3
20180424090514 45 123 0.0 0.0 0.00 0.00 0.00 84 1016.3
20180424085959 45 123 0.0 0.0 0.00 0.00 0.00 84 1016.3
20180424085458 45 123 0.0 0.0 0.00 0.00 0.00 84 1016.4
20180424084958 45 123 0.0 0.0 0.00 0.00 0.00 84 1016.4
20180424084447 45 123 0.0 0.0 0.00 0.00 0.00 85 1016.4
20180424083941 45 123 0.0 0.0 0.00 0.00 0.00 85 1016.4
20180424083440 45 123 0.0 0.0 0.00 0.00 0.00 84 1016.4
20180424082942 45 123 0.0 0.0 0.00 0.00 0.00 84 1016.4
20180424082440 45 123 0.0 0.0 0.00 0.00 0.00 84 1016.4
20180424081939 45 123 0.0 0.0 0.00 0.00 0.00 84 1016.5
20180424081438 45 123 0.0 0.0 0.00 0.00 0.00 83 1016.6
20180424080937 45 123 0.0 0.0 0.00 0.00 0.00 83 1016.6
20180424080427 45 123 0.0 0.0 0.00 0.00 0.00 83 1016.6
20180424075905 45 123 0.0 0.0 0.00 0.00 0.00 83 1016.6
20180424075347 45 123 0.0 0.0 0.00 0.00 0.00 83 1016.6
20180424074847 45 123 0.0 0.0 0.00 0.00 0.00 83 1016.6
20180424074345 45 123 0.0 0.0 0.00 0.00 0.00 83 1016.7
20180424073835 45 123 0.0 0.0 0.00 0.00 0.00 82 1016.7
20180424073257 45 123 0.0 0.0 0.00 0.00 0.00 81 1016.7
20180424072707 45 123 0.0 0.0 0.00 0.00 0.00 81 1016.8
20180424072128 45 123 0.0 0.0 0.00 0.00 0.00 81 1016.8
20180424071542 45 123 0.0 0.0 0.00 0.00 0.00 80 1016.8
20180424071011 46 123 0.0 0.0 0.00 0.00 0.00 80 1017.0
20180424070456 46 123 0.0 0.0 0.00 0.00 0.00 81 1017.0
20180424065946 46 123 0.0 0.0 0.00 0.00 0.00 80 1017.0
20180424065432 46 123 0.0 0.0 0.00 0.00 0.00 79 1017.2
20180424064913 46 123 0.0 0.0 0.00 0.00 0.00 76 1017.2
20180424064408 46 123 0.0 0.0 0.00 0.00 0.00 75 1017.3
20180424063857 47 123 0.0 0.0 0.00 0.00 0.00 74 1017.4
20180424063331 47 123 0.0 0.0 0.00 0.00 0.00 73 1017.4
20180424062751 48 123 0.0 0.0 0.00 0.00 0.00 72 1017.4
20180424062217 48 123 0.0 0.0 0.00 0.00 0.00 72 1017.5
20180424061714 49 123 0.0 0.0 0.00 0.00 0.00 72 1017.5
20180424061143 49 123 0.0 0.0 0.00 0.00 0.00 71 1017.6
20180424060639 49 123 0.0 0.0 0.00 0.00 0.00 69 1017.7
20180424060122 50 123 0.0 0.0 0.00 0.00 0.00 68 1017.7
20180424055620 50 123 0.0 0.0 0.00 0.00 0.00 68 1017.7
20180424055110 51 123 0.0 0.0 0.00 0.00 0.00 67 1017.7
20180424054606 51 123 0.0 0.0 0.00 0.00 0.00 67 1017.7
20180424054046 51 123 0.0 0.0 0.00 0.00 0.00 66 1017.8
20180424053535 51 123 0.0 0.0 0.00 0.00 0.00 66 1017.8
20180424053027 51 123 0.0 0.0 0.00 0.00 0.00 67 1017.8
20180424052509 51 123 0.0 0.0 0.00 0.00 0.00 66 1017.8
20180424051951 51 123 0.0 0.0 0.00 0.00 0.00 66 1017.8
20180424051436 51 123 0.0 0.0 0.00 0.00 0.00 67 1017.9
20180424050933 51 123 0.0 0.0 0.00 0.00 0.00 65 1018.0
20180424050422 52 123 0.0 0.0 0.00 0.00 0.00 64 1018.0
20180424045921 53 123 0.0 0.0 0.00 0.00 0.00 61 1017.9
20180424045355 53 123 0.0 0.0 0.00 0.00 0.00 62 1017.9
20180424044842 54 123 0.0 0.0 0.00 0.00 0.00 60 1018.0
20180424044312 54 123 0.0 0.0 0.00 0.00 0.00 59 1017.9
20180424043739 55 123 0.0 0.0 0.00 0.00 0.00 57 1017.9
20180424043149 56 123 0.0 0.0 0.00 0.00 0.00 55 1018.0
20180424042645 56 123 0.0 0.0 0.00 0.00 0.00 54 1018.1
20180424042140 56 123 0.0 0.0 0.00 0.00 0.00 54 1018.1
20180424041642 56 122 0.0 2.0 0.00 0.00 0.00 54 1018.1
20180424041059 56 122 0.0 2.0 0.00 0.00 0.00 54 1018.0
20180424040601 56 121 0.0 0.0 0.00 0.00 0.00 54 1018.0
20180424040100 56 121 0.0 0.0 0.00 0.00 0.00 54 1018.0
20180424035531 56 121 0.0 1.0 0.00 0.00 0.00 54 1018.0
20180424034957 56 119 0.0 1.0 0.00 0.00 0.00 54 1018.0
20180424034441 56 118 0.0 0.0 0.00 0.00 0.00 55 1018.2
20180424033927 56 117 0.0 4.0 0.00 0.00 0.00 56 1018.1
20180424033425 56 114 0.0 4.0 0.00 0.00 0.00 57 1018.1
20180424032908 55 115 0.0 5.0 0.00 0.00 0.00 60 1018.0
20180424032410 53 116 0.0 5.0 0.00 0.00 0.00 62 1017.9
20180424031856 52 114 0.0 4.0 0.00 0.00 0.00 66 1017.8
20180424031348 50 103 0.0 11.0 0.00 0.00 0.00 69 1017.7
20180424030757 49 101 0.0 11.0 0.00 0.00 0.00 72 1017.6
20180424030254 48 123 0.0 5.0 0.00 0.00 0.00 72 1017.6
20180424025738 48 123 0.0 0.0 0.00 0.00 0.00 71 1017.6
20180424025239 48 123 0.0 0.0 0.00 0.00 0.00 70 1017.6
20180424024741 49 123 0.0 0.0 0.00 0.00 0.00 69 1017.6
20180424024215 49 123 0.0 0.0 0.00 0.00 0.00 69 1017.6
20180424023711 49 123 0.0 0.0 0.00 0.00 0.00 69 1017.6
20180424023157 49 123 0.0 0.0 0.00 0.00 0.00 69 1017.7
20180424022642 50 123 0.0 0.0 0.00 0.00 0.00 69 1017.7
20180424022132 50 123 0.0 0.0 0.00 0.00 0.00 69 1017.7
20180424021601 51 123 0.0 0.0 0.00 0.00 0.00 68 1017.7
20180424021052 51 123 0.0 0.0 0.00 0.00 0.00 68 1017.8
20180424020537 51 123 0.0 0.0 0.00 0.00 0.00 67 1017.8
20180424020033 52 123 0.0 0.0 0.00 0.00 0.00 66 1017.8
20180424015508 52 123 0.0 0.0 0.00 0.00 0.00 65 1017.8
20180424015003 53 123 0.0 0.0 0.00 0.00 0.00 64 1017.9
20180424014455 53 123 0.0 0.0 0.00 0.00 0.00 63 1017.9
20180424013957 54 123 0.0 0.0 0.00 0.00 0.00 62 1018.0
20180424013445 54 123 0.0 0.0 0.00 0.00 0.00 60 1018.0
20180424012931 55 123 0.0 0.0 0.00 0.00 0.00 59 1017.9
20180424012420 56 123 0.0 0.0 0.00 0.00 0.00 58 1018.0
20180424011904 56 123 0.0 0.0 0.00 0.00 0.00 57 1018.0
20180424011352 57 123 0.0 0.0 0.00 0.00 0.00 53 1018.1
20180424010846 58 123 0.0 0.0 0.00 0.00 0.00 51 1018.1
20180424010337 58 123 0.0 0.0 0.00 0.00 0.00 49 1018.2
20180424005835 59 123 0.0 0.0 0.00 0.00 0.00 48 1018.0
20180424005313 60 123 0.0 0.0 0.00 0.00 0.00 47 1018.1
20180424004806 61 123 0.0 0.0 0.00 0.00 0.00 45 1018.2
20180424004259 62 123 0.0 0.0 0.00 0.00 0.00 43 1018.3
20180424003751 64 123 0.0 0.0 0.00 0.00 0.00 42 1018.3
20180424003242 64 123 0.0 0.0 0.00 0.00 0.00 40 1018.4
20180424002739 65 123 0.0 0.0 0.00 0.00 0.00 38 1018.4
20180424002228 66 123 0.0 4.0 0.00 0.00 0.00 37 1018.5
20180424001656 66 124 0.0 5.0 0.00 0.00 0.00 37 1018.5
20180424001136 67 122 0.0 0.0 0.00 0.00 0.00 35 1018.4
20180424000637 67 121 0.0 1.0 0.00 0.00 0.00 35 1018.5
20180424000131 68 121 0.0 4.0 0.00 0.00 0.00 35 1018.5
20180423235620 68 121 0.0 4.0 0.00 0.00 0.00 33 1018.5
20180423235118 68 130 1.0 6.0 0.00 0.00 0.00 33 1018.5
20180423234619 68 130 4.0 8.0 0.00 0.00 0.00 33 1018.5
20180423234040 68 131 2.0 9.0 0.00 0.00 0.00 33 1018.5
20180423233535 69 105 1.0 6.0 0.00 0.00 0.00 32 1018.6
20180423233037 69 101 1.0 7.0 0.00 0.00 0.00 32 1018.6
20180423232513 69 105 0.0 7.0 0.00 0.00 0.00 32 1018.7
20180423231955 69 96 2.0 7.0 0.00 0.00 0.00 32 1018.7
20180423231456 69 128 3.0 8.0 0.00 0.00 0.00 32 1018.7
20180423230956 69 102 3.0 8.0 0.00 0.00 0.00 32 1018.8
20180423230456 69 95 3.0 9.0 0.00 0.00 0.00 31 1018.8
20180423225957 70 103 3.0 9.0 0.00 0.00 0.00 30 1018.8
20180423225457 70 112 3.0 9.0 0.00 0.00 0.00 30 1019.0
20180423224953 70 105 3.0 11.0 0.00 0.00 0.00 29 1019.0
20180423224450 70 108 5.0 11.0 0.00 0.00 0.00 30 1019.0
20180423223952 70 127 4.0 10.0 0.00 0.00 0.00 30 1019.1
20180423223452 70 114 3.0 10.0 0.00 0.00 0.00 30 1019.1
20180423222951 70 123 4.0 11.0 0.00 0.00 0.00 29 1019.1
20180423222442 70 107 4.0 11.0 0.00 0.00 0.00 29 1019.1
20180423221937 70 97 3.0 12.0 0.00 0.00 0.00 29 1019.1
20180423221437 70 105 4.0 12.0 0.00 0.00 0.00 28 1019.2
20180423220938 70 96 5.0 12.0 0.00 0.00 0.00 28 1019.2
20180423220431 70 110 6.0 13.0 0.00 0.00 0.00 28 1019.2
20180423215929 70 140 3.0 13.0 0.00 0.00 0.00 29 1019.2
20180423215422 70 111 0.0 9.0 0.00 0.00 0.00 29 1019.2
20180423214923 70 129 3.0 11.0 0.00 0.00 0.00 29 1019.2
20180423214403 70 85 6.0 13.0 0.00 0.00 0.00 28 1019.3
20180423213903 70 101 4.0 13.0 0.00 0.00 0.00 28 1019.3
20180423213404 70 144 2.0 10.0 0.00 0.00 0.00 29 1019.3
20180423212902 70 144 3.0 10.0 0.00 0.00 0.00 29 1019.5
20180423212400 70 119 5.0 13.0 0.00 0.00 0.00 27 1019.5
20180423211903 70 117 6.0 13.0 0.00 0.00 0.00 28 1019.5
20180423211401 70 140 4.0 11.0 0.00 0.00 0.00 30 1019.6
20180423210858 70 135 5.0 12.0 0.00 0.00 0.00 29 1019.6
20180423210358 70 124 7.0 14.0 0.00 0.00 0.00 28 1019.6
20180423205854 70 163 6.0 14.0 0.00 0.00 0.00 28 1019.6
20180423205355 70 115 4.0 13.0 0.00 0.00 0.00 28 1019.6
20180423204851 70 67 5.0 12.0 0.00 0.00 0.00 31 1019.6
20180423204351 70 93 5.0 13.0 0.00 0.00 0.00 28 1019.7
20180423203842 70 118 3.0 13.0 0.00 0.00 0.00 28 1019.7
20180423203333 70 105 2.0 7.0 0.00 0.00 0.00 28 1019.7
20180423202825 70 96 2.0 7.0 0.00 0.00 0.00 28 1019.9
20180423202313 70 119 3.0 9.0 0.00 0.00 0.00 26 1019.9
20180423201804 70 125 3.0 9.0 0.00 0.00 0.00 27 1019.9
20180423201300 70 139 3.0 8.0 0.00 0.00 0.00 26 1020.2
20180423200759 70 190 3.0 8.0 0.00 0.00 0.00 26 1020.2
20180423200256 70 189 4.0 10.0 0.00 0.00 0.00 28 1020.2
20180423195756 69 194 5.0 14.0 0.00 0.00 0.00 25 1020.2
20180423195256 69 167 4.0 14.0 0.00 0.00 0.00 26 1020.2
20180423194756 69 124 4.0 11.0 0.00 0.00 0.00 28 1020.1
20180423194254 69 129 4.0 11.0 0.00 0.00 0.00 25 1020.3
20180423193756 69 148 5.0 11.0 0.00 0.00 0.00 26 1020.3
20180423193257 69 128 5.0 11.0 0.00 0.00 0.00 27 1020.3
20180423192757 69 124 3.0 12.0 0.00 0.00 0.00 27 1020.7
20180423192253 69 138 1.0 12.0 0.00 0.00 0.00 27 1020.7
20180423191753 69 118 1.0 6.0 0.00 0.00 0.00 25 1020.7
20180423191242 68 111 3.0 11.0 0.00 0.00 0.00 25 1020.8
20180423190728 68 164 5.0 11.0 0.00 0.00 0.00 26 1020.8
20180423190154 68 180 5.0 14.0 0.00 0.00 0.00 25 1020.8
20180423185651 68 130 7.0 15.0 0.00 0.00 0.00 28 1020.7
20180423185148 68 161 6.0 15.0 0.00 0.00 0.00 26 1020.7
20180423184648 68 129 5.0 12.0 0.00 0.00 0.00 27 1020.7
20180423184141 68 142 6.0 11.0 0.00 0.00 0.00 26 1020.9
20180423183640 68 186 6.0 11.0 0.00 0.00 0.00 26 1020.9
20180423183140 68 217 5.0 10.0 0.00 0.00 0.00 24 1020.9
20180423182641 68 178 6.0 10.0 0.00 0.00 0.00 25 1021.1
20180423182141 68 116 5.0 10.0 0.00 0.00 0.00 24 1021.1
20180423181641 68 202 3.0 9.0 0.00 0.00 0.00 25 1021.1
20180423181137 68 97 3.0 9.0 0.00 0.00 0.00 26 1021.2
20180423180634 67 110 5.0 13.0 0.00 0.00 0.00 26 1021.2
20180423180126 67 116 7.0 13.0 0.00 0.00 0.00 26 1021.2
20180423175626 67 115 7.0 13.0 0.00 0.00 0.00 24 1021.4
20180423175119 67 130 6.0 12.0 0.00 0.00 0.00 25 1021.4
20180423174606 67 166 5.0 13.0 0.00 0.00 0.00 24 1021.3
20180423174106 67 146 4.0 13.0 0.00 0.00 0.00 25 1021.6
20180423173608 67 107 4.0 16.0 0.00 0.00 0.00 24 1021.6
20180423173106 67 93 3.0 16.0 0.00 0.00 0.00 24 1021.5
20180423172605 67 188 5.0 13.0 0.00 0.00 0.00 24 1021.7
20180423172104 67 110 6.0 17.0 0.00 0.00 0.00 25 1021.7
20180423171735 66 73 5.0 17.0 0.00 0.00 0.00 24 1021.7
20180423170514 66 127 2.0 12.0 0.00 0.00 0.00 24 1021.9
20180423170016 66 110 2.0 12.0 0.00 0.00 0.00 24 1021.9
20180423165509 65 145 3.0 14.0 0.00 0.00 0.00 25 1022.2
20180423164959 65 115 4.0 14.0 0.00 0.00 0.00 25 1022.2
20180423164457 65 93 4.0 12.0 0.00 0.00 0.00 25 1022.2
20180423163954 65 111 3.0 13.0 0.00 0.00 0.00 25 1022.5
20180423163454 64 123 2.0 13.0 0.00 0.00 0.00 25 1022.5
20180423162955 64 101 2.0 11.0 0.00 0.00 0.00 24 1022.5
20180423162447 64 98 3.0 8.0 0.00 0.00 0.00 25 1022.7
20180423161938 64 109 3.0 11.0 0.00 0.00 0.00 25 1022.7
20180423161420 63 77 5.0 12.0 0.00 0.00 0.00 26 1022.9
20180423160919 63 89 6.0 12.0 0.00 0.00 0.00 27 1022.9